Location: Oriwa
(40.7500°S, 175.3333°E)
Time: 08:40:50
(UTC+00:00)

SAR-Lupe-2 - Pass Details

Date: 03 February 2023
Orbit: 481 x 482 km, 98.1° (Epoch: 05 September)

Event Time Altitude Azimuth Distance (km) Brightness Sun altitude
Exits shadow 15:44:37 37° 273° (W) 781 4.2 -17.5°
Drops below altitude 10° 15:47:53 10° 210° (SSW) 1,693 6.4 -17.0°
Sets 15:50:05 0° 201° (SSW) 2,583 7.5 -16.7°
